Regional Weather Roundup
Issued by NWS

Home | Current Version | Previous Version | Graphics & Text | Print | Product List | Glossary On
Versions: 1 2 3 4 5 6 7 8 9 10 11 12 13 14 15 16 17 18 19 20 21 22 23 24 25 26 27 28 29 30 31 32 33 34 35 36 37 38 39 40 41 42 43 44 45 46 47 48 49 50
000
ASUS43 KLSX 300807
RWRMO

WEATHER SUMMARY FOR MISSOURI
NATIONAL WEATHER SERVICE SPRINGFIELD MO
300 AM CDT TUE JUN 30 2015

NOTE: "FAIR" INDICATES FEW OR NO CLOUDS BELOW 12,000 FEET WITH NO
       SIGNIFICANT WEATHER AND/OR OBSTRUCTIONS TO VISIBILITY.
       CURRENT SKY AND/OR WEATHER CONDITIONS ARE NOT AVAILABLE FOR
       CHILLICOTHE AND FARMINGTON.

MOZ001>031-035>038-043-044-053-054-300900-
...NORTHERN AND WESTERN MISSOURI...

CITY           SKY/WX    TMP DP  RH WIND       PRES   REMARKS
KANSAS CTY INT PTCLDY    69  66  90 SW7       29.92F
KANSAS C DTWN  PTCLDY    73  69  87 SW3       29.91F
LEE`S SUMMIT   MOCLDY    70  64  81 SW5       29.93F
ST JOSEPH      CLEAR     67  65  93 CALM      29.91F
CHILLICOTHE      N/A     67  65  93 CALM      29.91F
KIRKSVILLE     CLEAR     65  63  93 W5        29.89F

$$
MOZ066>068-077>081-088>096-101>105-300900-
...SOUTHWEST MISSOURI...

CITY           SKY/WX    TMP DP  RH WIND       PRES   REMARKS
SPRINGFIELD    CLEAR     68  63  84 SW5       29.95F
JOPLIN         CLEAR     68  64  87 CALM      29.96F

$$
MOZ032>034-039>042-045>050-055>058-069>072-300900-
...CENTRAL MISSOURI...

CITY           SKY/WX    TMP DP  RH WIND       PRES   REMARKS
COLUMBIA       CLEAR     69  66  90 W6        29.90F
JEFFERSON CITY CLEAR     69  66  90 CALM      29.89F
ROLLA          CLEAR     66  64  93 SW7       29.90F
SEDALIA        MOCLDY    72  66  81 W5        29.92F
WHITEMAN AFB   CLEAR     69  65  87 W6        29.90F
WARRENSBURG    CLEAR     68  64  88 CALM      29.91F
OSAGE BEACH    CLEAR     66  64  94 CALM      29.91F

$$
MOZ051-052-059>065-300900-
...EAST CENTRAL MISSOURI...

CITY           SKY/WX    TMP DP  RH WIND       PRES   REMARKS
ST LOUIS INTL  CLEAR     72  66  81 SW5       29.87F
SPIRIT OF STL  CLEAR     68  67  96 CALM      29.86F
ST CHARLES     CLEAR     70  69  97 CALM      29.85S

$$
MOZ072>076-082>087-097>100-106>115-300900-
...SOUTH CENTRAL AND SOUTHEAST MISSOURI...

CITY           SKY/WX    TMP DP  RH WIND       PRES   REMARKS
CAPE GIRARDEAU CLEAR     69  67  93 W5        29.88F
FARMINGTON     PTCLDY    68  64  88 S5        29.93F
POPLAR BLUFF   CLEAR     71  67  87 CALM      29.89F
WEST PLAINS    CLEAR     67  63  87 W5        29.96F

$$



USA.gov is the U.S. government's official web portal to all federal, state and local government web resources and services.